"Pseudo-MPEC" for ZLB26C2

Created 2018 Jun 17 14:19:05 UT using Find_Orb

Click here for an explanation of pseudo-MPECs

 
 Astrometry: 
     ZLB26C2  C2018 06 12.20599 13 10 29.20 +09 19 35.5          21.4 GUNEOCPG96
     ZLB26C2  C2018 06 12.21172 13 10 29.69 +09 19 27.1          22.4 GUNEOCPG96
     ZLB26C2  C2018 06 12.22319 13 10 30.60 +09 19 10.7          22.0 GUNEOCPG96
     ZLB26C2  C2018 06 12.27393 13 10 34.61 +09 17 54.7          20.4 GUNEOCPI52
     ZLB26C2  C2018 06 12.27539 13 10 34.74 +09 17 51.8          20.3 GUNEOCPI52
     ZLB26C2  C2018 06 12.27868 13 10 34.91 +09 17 46.5                UNEOCPI52
     ZLB26C2  C2018 06 12.28014 13 10 35.03 +09 17 44.7                UNEOCPI52
     ZLB26C2 KC2018 06 14JDAstrometryPEHV:;F`h-tsNjg^PLR8o#mG3$Lqjv;tA=P[YQuGH21
     ZLB26C2 KC2018 06 148Itf:JDBV\7Y)8F-dredacted;Q:3L6+VKd-GeEp:fdVj.RGDiZNH21
     ZLB26C2 KC2018 06 14'[5ESA_fGuK#G5eHUdoP)%ukWv6Vd[7SZDt?1Ao\ypLd[N6*Ys/TH21
     ZLB26C2  C2018 06 14.19284 13 13 14.28 +08 30 31.2          22.0 GUNEOCPG96
     ZLB26C2  C2018 06 14.19428 13 13 14.39 +08 30 28.5          20.6 GUNEOCPG96
     ZLB26C2  C2018 06 14.19730 13 13 14.65 +08 30 23.7          20.7 GUNEOCPG96
     ZLB26C2  C2018 06 14.20030 13 13 14.88 +08 30 21.2          20.8 GUNEOCPG96
     ZLB26C2 KC2018 06 17e@P!t`?/Rrivmbah1Dg'JQE_Z\i9URmtseerwuF7:Uigxf4:MLKj291
     ZLB26C2 KC2018 06 17SOuS4Ui#nxU;s'ln'*c6MP49dOA@Uldbv`;0o*h]w3V%$,dNEOCP291

Station data:
(291) LPL/Spacewatch II  (N31.961669 W111.599905)  US/Arizona.  Observers J.
   V. Scotti, R. S. McMillan. 1.8-m f/2.7 reflector + CCD.
(G96) Mt. Lemmon Survey  (N32.442754 W110.788720)  US/Arizona.  Observers B.
   M. Africano, E. J. Christensen, D. C. Fuls, A. R. Gibbs, A. D. Grauer, J.
   A. Johnson, R. A. Kowalski, S. M. Larson, G. J. Leonard, R. L. Seaman, F.
   C. Shelly. 1.5-m reflector + 10K CCD.
(H21) Astronomical Research Observatory, Westfield  (N39.483057 W87.968270)
   US/Illinois. 0.76-m f/3.0 astrograph + CCD.
(I52) Steward Observatory, Mt. Lemmon Station  (N32.442547 W110.788920)
   US/Arizona.  Observers B. M. Africano, E. J. Christensen, D. C. Fuls, A.
   R. Gibbs, A. D. Grauer, J. A. Johnson, R. A. Kowalski, S. M. Larson, G. J.
   Leonard, R. L. Seaman, F. C. Shelly. 1.0-m reflector + CCD.

Orbital elements:  ZLB26C2
   Perihelion 2018 May 31.511362 +/- 0.691 TT = 12:16:21 (JD 2458270.011362)
Epoch 2018 Jun 17.0 TT = JDT 2458286.5   Earth MOID: 0.5602   AutoNEOCP
M   3.92690 +/- 0.39                (J2000 ecliptic)
n   0.23815806 +/- 0.0157           Peri.  123.86081 +/- 0.6
a   2.57766131 +/- 0.113            Node    99.31430 +/- 0.57
e   0.4042576 +/- 0.0224            Incl.   11.30978 +/- 0.14
P   4.14                   H 19.5   G  0.15   U 10.0  
q 1.53562209 +/- 0.0104    Q 3.61970054 +/- 0.23
From 16 observations 2018 June 12-17; mean residual 0".47
Residuals in arcseconds: 
180612 G96  .43-  .27+    180612 I52  .61-  .55-    180614 G96  .28+  .68-    
180612 G96  .19+  .36+    180614 H21  .04+  .20-    180614 G96  .07+  1.3+    
180612 G96  .35+  .95+    180614 H21  .27-  .05-    180617 291  .26-  .19-    
180612 I52  .47+  .23+    180614 H21  .20-  .01+    180617 291  .25+  .16+    
180612 I52  .68+  .51-    180614 G96  .16+  .18+    
180612 I52  .67-  .92-    180614 G96  .05+  .38-    

Ephemerides (geocentric):
Date (UTC) HH   RA              Dec         delta   r     elong  mag " sig PA
---- -- -- --  -------------   -----------  ------ ------ -----  --- ---- ---
2018 06 17 14  13 18 09.158   +07 06 19.73  .88194 1.5430 108.6 21.7  .40  46
2018 06 17 15  13 18 12.879   +07 05 17.42  .88219 1.5430 108.6 21.7  .42  46
2018 06 17 16  13 18 16.602   +07 04 15.10  .88244 1.5431 108.5 21.7  .43  46
2018 06 17 17  13 18 20.327   +07 03 12.79  .88268 1.5431 108.5 21.7  .45  46
2018 06 17 18  13 18 24.054   +07 02 10.47  .88293 1.5431 108.5 21.7  .46  47
2018 06 17 19  13 18 27.784   +07 01 08.14  .88318 1.5432 108.5 21.7  .48  47
2018 06 17 20  13 18 31.517   +07 00 05.82  .88343 1.5432 108.5 21.7  .49  47
2018 06 17 21  13 18 35.251   +06 59 03.49  .88368 1.5432 108.5 21.7  .51  47
2018 06 17 22  13 18 38.988   +06 58 01.15  .88393 1.5433 108.4 21.7  .52  47
2018 06 17 23  13 18 42.727   +06 56 58.82  .88418 1.5433 108.4 21.7  .54  48
2018 06 18 00  13 18 46.469   +06 55 56.48  .88443 1.5433 108.4 21.7  .55  48
2018 06 18 01  13 18 50.213   +06 54 54.14  .88468 1.5434 108.4 21.7  .57  48
2018 06 18 02  13 18 53.959   +06 53 51.79  .88493 1.5434 108.4 21.7  .59  48
2018 06 18 03  13 18 57.708   +06 52 49.44  .88518 1.5435 108.4 21.7  .60  48
2018 06 18 04  13 19 01.459   +06 51 47.09  .88543 1.5435 108.3 21.7  .62  48
2018 06 18 05  13 19 05.212   +06 50 44.74  .88568 1.5435 108.3 21.7  .64  48
2018 06 18 06  13 19 08.968   +06 49 42.38  .88593 1.5436 108.3 21.7  .65  48
2018 06 18 07  13 19 12.726   +06 48 40.02  .88618 1.5436 108.3 21.7  .67  49
2018 06 18 08  13 19 16.486   +06 47 37.66  .88644 1.5436 108.3 21.7  .69  49
2018 06 18 09  13 19 20.249   +06 46 35.29  .88669 1.5437 108.3 21.7  .71  49
2018 06 18 10  13 19 24.013   +06 45 32.92  .88694 1.5437 108.2 21.7  .72  49
2018 06 18 11  13 19 27.781   +06 44 30.55  .88719 1.5437 108.2 21.7  .74  49
2018 06 18 12  13 19 31.550   +06 43 28.18  .88744 1.5438 108.2 21.7  .76  49
2018 06 18 13  13 19 35.322   +06 42 25.80  .88769 1.5438 108.2 21.7  .78  49
2018 06 18 14  13 19 39.096   +06 41 23.42  .88794 1.5439 108.2 21.7  .80  49
2018 06 18 15  13 19 42.873   +06 40 21.04  .88820 1.5439 108.2 21.7  .82  49
2018 06 18 16  13 19 46.651   +06 39 18.65  .88845 1.5439 108.1 21.7  .84  50
2018 06 18 17  13 19 50.432   +06 38 16.27  .88870 1.5440 108.1 21.7  .85  50
2018 06 18 18  13 19 54.216   +06 37 13.88  .88895 1.5440 108.1 21.7  .87  50
2018 06 18 19  13 19 58.001   +06 36 11.49  .88920 1.5441 108.1 21.7  .89  50
2018 06 18 20  13 20 01.789   +06 35 09.09  .88946 1.5441 108.1 21.7  .91  50
2018 06 18 21  13 20 05.579   +06 34 06.69  .88971 1.5441 108.1 21.7  .93  50
2018 06 18 22  13 20 09.372   +06 33 04.30  .88996 1.5442 108.0 21.7  .95  50
2018 06 18 23  13 20 13.167   +06 32 01.89  .89022 1.5442 108.0 21.7  .97  50
2018 06 19 00  13 20 16.964   +06 30 59.49  .89047 1.5442 108.0 21.7  1.0  50
2018 06 19 01  13 20 20.763   +06 29 57.09  .89072 1.5443 108.0 21.7  1.0  50
2018 06 19 02  13 20 24.565   +06 28 54.68  .89098 1.5443 108.0 21.7  1.0  50
2018 06 19 03  13 20 28.369   +06 27 52.27  .89123 1.5444 108.0 21.7  1.1  50
2018 06 19 04  13 20 32.175   +06 26 49.85  .89148 1.5444 107.9 21.7  1.1  50
2018 06 19 05  13 20 35.983   +06 25 47.44  .89174 1.5444 107.9 21.7  1.1  50
2018 06 19 06  13 20 39.794   +06 24 45.02  .89199 1.5445 107.9 21.7  1.1  51
2018 06 19 07  13 20 43.607   +06 23 42.61  .89224 1.5445 107.9 21.7  1.1  51
2018 06 19 08  13 20 47.423   +06 22 40.18  .89250 1.5446 107.9 21.7  1.2  51
2018 06 19 09  13 20 51.240   +06 21 37.76  .89275 1.5446 107.9 21.7  1.2  51
2018 06 19 10  13 20 55.060   +06 20 35.34  .89301 1.5446 107.8 21.7  1.2  51
2018 06 19 11  13 20 58.882   +06 19 32.91  .89326 1.5447 107.8 21.7  1.2  51
2018 06 19 12  13 21 02.706   +06 18 30.48  .89352 1.5447 107.8 21.7  1.3  51
2018 06 19 13  13 21 06.533   +06 17 28.05  .89377 1.5448 107.8 21.7  1.3  51